This is the latest recevied weather packets stored in our database for station/object KC3SOZ. If no packets are shown the sender has not sent any weather packets the latest 10 day(s).
| Time | Temp. | Humidity | Pressure | Rain* | Wind** | Luminosity | Snow |
|---|---|---|---|---|---|---|---|
| 1778179929 | 15° C | 46% | 1010.1 hPa | 0 mm | - | 248 W/m² | - |
| 1778179626 | 15° C | 47% | 1010.1 hPa | 0 mm | - | 215 W/m² | - |
| 1778179324 | 16.11° C | 51% | 1010.2 hPa | 0 mm | - | 265 W/m² | - |
| 1778179020 | 16.67° C | 49% | 1010.2 hPa | 0 mm | - | 866 W/m² | - |
| 1778178717 | 16.67° C | 46% | 1010.4 hPa | 0 mm | - | 894 W/m² | - |
| 1778178414 | 15.56° C | 45% | 1010.3 hPa | 0 mm | - | 915 W/m² | - |
| 1778178109 | 15.56° C | 44% | 1010.6 hPa | 0 mm | - | 898 W/m² | - |
| 1778177806 | 15° C | 51% | 1010.4 hPa | 0 mm | - | 492 W/m² | - |
| 1778177503 | 15° C | 48% | 1010.6 hPa | 0 mm | - | 970 W/m² | - |
| 1778177199 | 15° C | 50% | 1010.6 hPa | 0 mm | - | 470 W/m² | - |
| 1778176896 | 15° C | 47% | 1010.6 hPa | 0 mm | - | 772 W/m² | - |
| 1778176592 | 15° C | 49% | 1010.7 hPa | 0 mm | - | 205 W/m² | - |
| 1778176290 | 15.56° C | 48% | 1010.9 hPa | 0 mm | - | 325 W/m² | - |
| 1778175986 | 15° C | 52% | 1011.1 hPa | 0 mm | - | 877 W/m² | - |
| 1778175684 | 15° C | 45% | 1011 hPa | 0 mm | - | 867 W/m² | - |
| 1778175381 | 14.44° C | 50% | 1011.3 hPa | 0 mm | - | 893 W/m² | - |
| 1778175078 | 14.44° C | 49% | 1011.2 hPa | 0 mm | - | 210 W/m² | - |
| 1778174774 | 15° C | 51% | 1011.1 hPa | 0 mm | - | 821 W/m² | - |
| 1778174472 | 14.44° C | 47% | 1011.4 hPa | 0 mm | - | 931 W/m² | - |
| 1778174167 | 15° C | 51% | 1011.5 hPa | 0 mm | - | 873 W/m² | - |
| 1778173865 | 15° C | 49% | 1011.3 hPa | 0 mm | - | 869 W/m² | - |
| 1778173561 | 15° C | 49% | 1011.8 hPa | 0 mm | - | 870 W/m² | - |
| 1778173258 | 13.89° C | 51% | 1011.6 hPa | 0 mm | - | 785 W/m² | - |
| 1778172954 | 14.44° C | 47% | 1011.8 hPa | 0 mm | - | 874 W/m² | - |
| 1778172650 | 14.44° C | 56% | 1011.7 hPa | 0 mm | - | 859 W/m² | - |
* Rain latest hour (hover to see other rain measurements)
** Current wind speed in m/s (hover to see current wind gust speed)